Wind_Speed
4 6 7 9 10 11 13 14 16 18 22 26 29 32 35 39 44 49 54 60 64 69 72 76 78 81 82 84 86 86 84 80 74 69 65 62 57 53 50 50 52 54 58 65
7 9 10 12 14 15 16 17 19 21 25 29 33 36 37 43 48 53 58 64 68 72 75 77 79 81 83 85 85 82 75 68 64 61 58 53 49 46 44 45 46 47 47 51
10 12 13 15 15 16 17 19 22 25 28 31 37 39 41 46 51 57 63 68 72 75 78 79 80 82 83 82 78 71 64 61 58 55 52 49 47 46 46 45 45 45 45 45
12 14 15 16 17 18 19 22 25 28 32 33 38 43 44 50 57 63 68 72 74 77 78 80 81 82 80 76 70 63 60 58 56 54 52 50 49 47 46 45 44 43 43 43
14 15 16 17 18 20 22 25 28 31 33 35 39 46 50 56 62 67 71 74 76 77 79 81 81 79 75 69 63 59 58 58 57 56 55 53 52 51 49 48 46 44 42 41
14 15 16 17 19 21 24 27 30 33 37 39 43 49 55 61 66 70 73 75 76 78 79 80 79 74 69 64 60 59 60 60 60 60 59 57 55 54 53 51 49 46 43 40
16 17 17 18 20 22 25 29 33 38 41 43 46 52 59 64 68 71 74 75 76 78 79 78 74 69 64 61 61 62 63 64 64 63 61 59 58 57 55 54 51 48 44 40
18 19 19 20 21 23 26 28 32 37 41 45 49 55 62 67 70 72 75 75 77 79 78 74 70 66 63 62 63 65 65 64 63 60 58 57 55 54 54 54 53 50 47 42
19 20 20 20 22 24 27 31 34 38 43 48 53 58 64 69 72 74 75 76 77 77 75 71 67 64 64 65 66 65 63 60 58 56 54 52 51 51 50 50 50 49 48 45
19 20 20 21 22 24 28 32 36 39 45 51 57 62 67 70 73 75 75 76 77 75 71 68 66 65 66 66 64 61 58 56 53 52 51 50 50 49 49 48 47 45 44 44
20 21 21 22 23 26 30 33 36 40 45 52 60 65 68 72 74 75 76 76 75 72 68 66 66 67 66 63 60 57 55 53 52 51 51 51 50 50 49 48 46 44 42 41
20 21 22 23 24 27 29 32 37 43 49 54 62 67 71 73 74 75 75 75 72 69 67 67 67 66 63 59 56 54 53 52 53 53 53 52 52 51 50 48 46 43 41 39
21 23 24 24 24 27 31 35 39 45 51 57 64 68 73 74 74 74 74 73 70 68 67 67 66 63 59 55 54 53 53 54 55 55 55 54 53 51 49 47 44 41 38 37
22 23 25 26 28 31 34 37 41 46 53 59 65 70 73 74 73 74 74 72 69 67 67 66 63 59 55 53 53 53 54 56 57 56 55 54 52 50 48 46 43 40 36 34
24 24 23 25 26 29 34 37 42 47 55 62 68 72 74 74 74 74 73 70 68 66 65 64 59 55 53 52 52 53 55 57 58 57 54 52 51 50 49 47 44 40 36 33
25 25 25 25 28 30 34 38 44 50 57 65 70 74 75 73 73 74 71 69 67 65 64 60 56 53 52 52 52 54 56 59 60 57 53 51 51 51 51 50 47 42 37 33
26 28 30 31 33 33 37 43 48 53 60 66 72 74 75 73 73 73 70 68 65 64 62 57 53 52 52 52 53 55 59 61 61 58 53 52 52 53 53 53 51 47 40 34
28 30 33 35 37 38 41 44 50 55 61 68 72 75 73 72 72 71 68 65 64 62 58 54 52 51 52 53 54 57 61 63 61 58 54 53 54 55 55 56 55 52 46 37
29 32 35 37 39 39 42 47 52 57 63 69 73 73 72 71 71 68 66 65 63 60 55 52 51 52 53 53 55 58 62 63 61 58 56 55 55 56 57 58 57 55 48 38
30 32 35 37 39 42 45 49 53 59 65 69 72 71 70 70 69 67 65 63 61 57 53 51 52 52 53 54 56 60 63 62 60 58 57 57 58 58 59 60 61 57 48 37
31 34 36 38 39 42 46 50 55 59 65 69 71 69 68 68 67 65 64 62 59 54 51 51 52 53 54 55 57 60 62 61 60 58 57 58 60 61 62 64 63 56 45 33
34 37 39 40 42 45 47 50 54 59 65 69 69 67 67 67 65 64 62 60 56 52 50 50 52 53 55 56 58 60 61 60 59 58 58 60 61 63 65 67 64 55 41 29
34 37 38 40 41 43 45 49 54 59 65 68 68 66 66 65 64 62 60 58 54 50 49 50 52 53 55 56 58 59 60 59 59 58 59 61 62 64 67 69 66 54 39 26
36 37 37 39 41 43 46 50 55 59 65 68 66 65 65 64 62 60 58 56 52 48 47 49 51 53 54 55 57 59 59 59 59 59 59 61 62 63 67 71 69 57 41 27
39 40 38 38 40 42 46 51 55 59 64 67 65 64 63 62 60 59 57 54 49 46 46 48 50 52 53 54 56 58 59 59 59 59 60 61 62 63 66 71 72 64 47 33
40 39 38 39 41 43 47 51 55 59 64 66 64 62 62 61 59 57 55 52 48 45 45 47 50 51 52 53 55 57 58 58 58 58 60 61 62 63 64 68 71 69 57 41
Wind_Direction
320 319 328 331 329 328 328 328 327 325 323 323 323 323 323 321 318 317 317 317 316 316 316 316 316 316 315 314 312 309 307 306 305 304 304 303 301 299 298 296 292 286 277 267
316 319 324 325 324 323 321 319 319 320 322 324 322 322 323 320 319 320 320 320 320 319 318 318 318 318 316 314 311 309 308 309 309 308 307 305 304 302 301 300 298 295 289 279
326 325 326 324 320 316 314 314 318 321 323 324 320 320 324 322 323 323 323 322 321 320 320 320 319 318 316 314 312 311 310 311 312 311 309 307 304 304 304 304 303 300 297 294
329 328 326 322 319 318 319 319 320 321 322 325 322 321 325 326 326 325 325 324 323 323 323 322 321 319 317 315 314 313 313 313 313 312 310 306 302 299 299 300 302 301 298 297
332 328 325 322 322 322 321 320 319 320 322 324 324 326 329 328 328 327 326 326 326 325 324 323 322 320 318 316 315 315 314 314 313 311 309 306 302 298 296 297 298 300 299 297
337 333 329 325 323 322 321 320 320 322 323 328 329 331 330 330 330 329 328 328 327 326 326 325 323 322 320 318 317 316 315 314 313 311 308 305 301 298 294 293 293 294 295 295
340 339 334 329 325 323 323 325 325 326 328 331 331 333 331 332 331 330 329 329 328 328 328 326 325 324 322 319 318 317 316 315 313 312 309 306 302 298 294 290 288 287 288 289
338 338 335 331 328 326 325 325 328 329 329 329 332 335 332 333 333 331 330 330 330 330 329 328 327 325 323 321 319 319 318 317 317 315 314 312 309 304 299 293 288 283 281 281
335 335 333 329 326 325 324 327 330 330 329 332 333 334 333 335 333 332 332 332 332 332 330 329 328 326 324 323 322 322 323 323 322 322 321 320 317 314 310 304 297 288 280 275
333 333 330 327 326 324 327 329 331 335 335 334 333 335 337 336 334 334 334 334 334 333 331 330 329 327 326 326 327 328 328 328 328 327 326 325 323 320 316 312 306 298 287 276
333 332 330 328 328 328 330 331 333 334 335 336 336 336 337 337 336 336 336 336 335 334 333 332 330 329 329 331 332 332 333 332 332 330 328 326 324 322 319 316 311 304 296 283
335 334 331 331 330 329 330 331 333 335 337 337 336 336 339 338 337 338 338 337 336 335 334 332 331 332 333 335 336 336 336 335 334 332 330 328 326 324 321 318 314 308 301 291
337 337 335 333 331 332 333 334 334 335 336 337 338 338 340 340 339 339 339 338 337 336 335 334 333 335 337 338 338 338 338 337 336 334 333 331 330 327 324 321 317 311 304 295
340 341 338 335 336 335 332 331 332 335 337 337 339 339 341 341 340 340 340 339 339 338 336 335 335 338 340 340 341 341 340 340 339 337 336 336 336 335 333 329 324 318 311 301
341 342 339 335 333 330 328 328 332 336 338 339 340 341 341 341 341 341 341 340 340 339 336 336 339 341 342 342 342 343 343 343 342 340 340 340 342 343 342 339 333 326 318 309
337 339 339 335 331 331 327 331 336 338 339 339 340 341 342 342 341 341 341 341 341 339 338 339 342 343 343 344 344 345 345 345 344 343 343 343 344 345 346 344 340 334 325 315
335 336 338 337 336 336 334 337 337 339 340 340 341 341 342 342 342 342 342 342 341 340 340 343 345 345 345 345 345 346 346 346 346 345 345 344 344 344 344 344 343 338 330 320
333 335 337 338 338 339 337 335 338 340 340 340 340 341 342 342 342 342 342 342 342 341 343 345 347 347 346 346 346 347 347 347 347 347 346 345 344 343 342 342 341 339 332 322
332 334 336 338 338 338 338 339 339 340 340 340 340 341 342 343 342 343 343 344 343 344 346 348 349 349 348 348 348 348 348 348 348 348 347 347 346 345 343 340 339 336 331 322
331 333 335 337 337 338 339 339 339 340 340 339 340 342 342 342 342 344 345 344 345 346 348 350 350 350 350 349 349 349 349 350 350 350 350 349 349 347 345 342 339 336 331 321
330 332 337 338 338 338 339 340 339 340 339 339 341 342 342 342 344 345 345 345 346 348 350 351 352 352 352 351 351 351 352 352 353 353 352 351 351 350 348 346 343 339 333 321
330 333 339 339 339 339 338 338 339 338 339 340 341 342 342 343 345 346 346 347 348 350 352 353 353 353 353 353 353 354 354 355 355 355 354 354 354 353 352 351 349 345 339 328
325 329 336 337 335 335 335 336 338 339 339 340 341 342 343 344 346 347 347 348 350 352 354 354 354 354 354 355 355 356 357 358 359 358 358 357 357 357 357 357 357 354 350 341
320 326 333 333 332 333 334 336 337 338 339 340 342 343 344 345 347 348 348 349 351 353 355 356 356 356 356 356 357 359 1 2 2 2 2 2 2 2 2 3 4 3 1 356
318 326 330 329 329 331 333 335 336 337 339 341 342 343 344 346 347 349 349 350 352 354 356 357 358 358 358 359 360 2 4 5 5 5 6 6 6 6 7 9 10 11 10 8
317 323 325 326 328 330 332 334 335 337 338 341 343 344 345 347 348 349 350 352 353 355 357 358 359 360 0 1 2 5 7 7 7 8 9 10 10 11 12 14 15 17 18 16
Height
5883 5883 5880 5878 5876 5874 5871 5869 5867 5864 5860 5856 5852 5847 5842 5835 5828 5820 5811 5801 5791 5780 5768 5756 5744 5731 5718 5705 5691 5677 5664 5651 5641 5632 5623 5615 5606 5597 5589 5581 5575 5570 5568 5567
5884 5881 5879 5876 5874 5871 5869 5867 5864 5861 5857 5852 5846 5842 5836 5829 5820 5812 5802 5791 5779 5767 5755 5742 5729 5715 5702 5688 5673 5658 5645 5634 5625 5616 5607 5599 5591 5584 5577 5570 5562 5555 5550 5545
5882 5880 5877 5875 5872 5869 5866 5863 5860 5856 5852 5847 5841 5835 5831 5821 5812 5803 5792 5780 5768 5755 5742 5728 5715 5700 5685 5670 5655 5642 5631 5621 5612 5603 5594 5586 5578 5571 5564 5557 5549 5541 5534 5528
5879 5877 5874 5872 5869 5866 5863 5859 5856 5852 5847 5842 5836 5828 5824 5813 5803 5792 5781 5768 5755 5741 5727 5714 5699 5684 5668 5653 5639 5628 5618 5609 5600 5590 5581 5573 5566 5559 5552 5544 5537 5530 5522 5515
5877 5874 5872 5869 5866 5862 5859 5855 5851 5847 5842 5837 5829 5822 5815 5805 5794 5782 5769 5756 5742 5728 5714 5699 5684 5668 5652 5639 5627 5616 5606 5596 5587 5577 5568 5559 5551 5544 5537 5530 5524 5517 5510 5503
5875 5872 5869 5866 5863 5859 5855 5851 5847 5841 5836 5831 5823 5815 5806 5796 5784 5771 5757 5743 5729 5715 5700 5685 5669 5653 5638 5626 5615 5605 5595 5584 5573 5562 5552 5543 5535 5527 5520 5514 5509 5504 5498 5492
5872 5870 5866 5863 5860 5856 5852 5848 5842 5835 5829 5824 5817 5808 5799 5786 5773 5760 5746 5732 5717 5702 5687 5671 5655 5640 5627 5615 5604 5593 5582 5570 5558 5547 5536 5526 5517 5509 5502 5496 5491 5487 5484 5480
5870 5867 5864 5860 5856 5853 5848 5845 5840 5833 5825 5819 5810 5800 5790 5777 5763 5749 5735 5720 5705 5689 5673 5657 5642 5628 5615 5604 5592 5580 5568 5555 5543 5531 5520 5509 5500 5491 5484 5477 5472 5469 5467 5465
5867 5864 5861 5857 5853 5849 5844 5839 5835 5828 5819 5811 5802 5794 5781 5767 5754 5739 5724 5709 5693 5677 5661 5645 5630 5617 5604 5592 5579 5567 5554 5541 5529 5518 5507 5497 5487 5477 5469 5461 5455 5451 5448 5448
5864 5861 5858 5855 5851 5846 5841 5835 5830 5822 5814 5805 5795 5784 5772 5758 5744 5729 5714 5698 5683 5666 5650 5635 5620 5606 5593 5580 5567 5554 5542 5530 5519 5508 5497 5486 5476 5466 5457 5448 5441 5435 5431 5430
5861 5858 5855 5852 5847 5842 5837 5831 5824 5817 5809 5798 5787 5779 5765 5750 5734 5719 5704 5688 5671 5655 5640 5625 5611 5596 5583 5570 5557 5545 5533 5522 5511 5499 5488 5477 5466 5455 5445 5436 5428 5421 5416 5413
5858 5855 5852 5848 5844 5838 5833 5827 5820 5813 5803 5792 5781 5771 5755 5740 5724 5709 5694 5677 5661 5646 5631 5616 5602 5588 5574 5562 5550 5538 5526 5515 5503 5491 5479 5467 5456 5445 5434 5425 5416 5408 5402 5398
5855 5852 5848 5844 5842 5835 5828 5821 5814 5806 5797 5786 5774 5763 5746 5730 5715 5700 5685 5669 5653 5638 5623 5608 5594 5580 5567 5555 5544 5532 5520 5508 5495 5482 5470 5457 5445 5434 5423 5413 5404 5396 5390 5385
5852 5848 5844 5840 5833 5827 5822 5817 5809 5801 5791 5780 5768 5754 5738 5723 5708 5693 5678 5662 5646 5631 5616 5601 5587 5574 5562 5550 5538 5526 5514 5501 5488 5474 5461 5448 5436 5424 5413 5402 5393 5385 5378 5373
5848 5845 5841 5836 5831 5826 5819 5813 5805 5796 5785 5773 5760 5746 5731 5715 5700 5685 5670 5654 5640 5625 5610 5596 5582 5569 5557 5545 5533 5520 5508 5494 5480 5467 5454 5441 5429 5417 5405 5394 5384 5375 5367 5362
5844 5841 5837 5833 5828 5822 5815 5808 5799 5789 5778 5765 5752 5739 5723 5708 5693 5678 5663 5648 5634 5619 5605 5590 5576 5564 5552 5540 5528 5515 5502 5488 5474 5460 5447 5435 5423 5411 5399 5388 5377 5367 5358 5352
5840 5836 5832 5827 5822 5817 5809 5800 5792 5783 5771 5758 5745 5732 5716 5702 5686 5672 5657 5642 5628 5613 5598 5585 5572 5560 5547 5535 5523 5510 5496 5482 5467 5453 5441 5429 5417 5405 5393 5381 5370 5359 5350 5342
5836 5831 5826 5821 5816 5809 5806 5795 5785 5775 5764 5751 5738 5724 5710 5695 5680 5665 5651 5636 5622 5607 5594 5581 5568 5556 5543 5530 5517 5504 5490 5476 5461 5448 5435 5423 5411 5398 5386 5374 5362 5350 5340 5332
5832 5827 5822 5816 5809 5805 5798 5788 5778 5768 5758 5745 5732 5717 5703 5688 5675 5661 5645 5630 5617 5603 5589 5576 5564 5552 5539 5526 5513 5500 5485 5471 5456 5443 5430 5417 5405 5392 5379 5365 5352 5340 5329 5320
5828 5824 5819 5812 5805 5798 5793 5782 5772 5762 5751 5739 5725 5711 5697 5683 5670 5656 5640 5625 5611 5597 5584 5572 5560 5548 5536 5523 5510 5496 5481 5466 5452 5438 5424 5411 5398 5385 5371 5355 5340 5326 5314 5306
5824 5819 5814 5807 5800 5794 5785 5775 5766 5757 5747 5732 5718 5705 5691 5678 5664 5650 5634 5620 5606 5593 5580 5568 5557 5545 5533 5520 5507 5493 5478 5463 5449 5434 5420 5407 5392 5378 5362 5346 5328 5312 5300 5291
5818 5812 5807 5800 5793 5788 5779 5770 5762 5753 5739 5726 5713 5699 5686 5672 5658 5643 5629 5615 5602 5589 5578 5566 5554 5542 5530 5518 5505 5491 5476 5461 5446 5432 5418 5403 5387 5372 5355 5338 5318 5300 5287 5279
5814 5809 5803 5798 5792 5784 5775 5766 5757 5746 5734 5721 5708 5695 5681 5667 5653 5639 5626 5612 5599 5587 5576 5565 5553 5541 5528 5516 5503 5490 5475 5460 5445 5431 5416 5401 5385 5368 5351 5332 5312 5293 5279 5271
5809 5804 5799 5792 5785 5778 5769 5761 5751 5740 5729 5716 5703 5690 5676 5663 5649 5636 5622 5609 5597 5585 5575 5564 5552 5540 5528 5515 5502 5489 5474 5459 5445 5431 5416 5401 5385 5368 5350 5330 5310 5290 5276 5268
5802 5797 5793 5787 5780 5773 5765 5756 5746 5735 5723 5711 5698 5685 5672 5659 5646 5632 5619 5606 5594 5583 5573 5563 5552 5540 5527 5515 5502 5488 5475 5461 5447 5433 5418 5403 5387 5370 5352 5332 5312 5293 5277 5268
5798 5793 5787 5782 5775 5768 5760 5751 5741 5730 5718 5706 5693 5680 5668 5655 5642 5629 5617 5604 5592 5582 5572 5562 5551 5539 5527 5515 5502 5489 5476 5462 5449 5436 5421 5406 5390 5373 5356 5339 5319 5300 5284 5272